Waarnemingen

Advertentie
Mijn weer
Jaen, Spanje (8417): temperatuur & dauwpunt: 09.11.2018 20:00:00 - 15.11.2018 20:00:00 (CET)Jaen, Spanje (8417): windsnelheid: 09.11.2018 20:00:00 - 15.11.2018 20:00:00 (CET)Jaen, Spanje (8417): windrichting: 09.11.2018 20:00:00 - 15.11.2018 20:00:00 (CET)Jaen, Spanje (8417): luchtdruk: 09.11.2018 20:00:00 - 15.11.2018 20:00:00 (CET)Jaen, Spanje (8417): zicht: 09.11.2018 20:00:00 - 15.11.2018 20:00:00 (CET)Jaen, Spanje (8417): neerslag: 09.11.2018 20:00:00 - 15.11.2018 20:00:00 (CET)
Datum & Tijd tt [°C] td [°C] ff [km/u] ff [kn] dd ppp [hPa] vv [km] rr [mm]
15.11.2018 20:00:00 13,5 11,9 11 6 Z 1016,4 20 2,0
15.11.2018 19:00:00 15,2 11,6 16 9 ZZO 1015,8 10 -
15.11.2018 18:00:00 15,9 10,4 8 4 WZW 1014,8 20 0,0
15.11.2018 17:00:00 17,4 10,7 5 3 WZW 1014,3 20 0,0
15.11.2018 16:00:00 17,7 11,0 8 4 W 1014,0 20 -
15.11.2018 15:00:00 19,0 10,0 2 1 Z 1013,6 20 0,0
15.11.2018 14:00:00 18,8 9,3 4 2 N 1014,1 20 0,0
15.11.2018 13:00:00 17,5 10,4 4 2 NO 1015,0 20 -
15.11.2018 12:00:00 17,1 10,2 4 2 ONO 1015,6 20 0,0
15.11.2018 11:00:00 15,2 9,5 4 2 W 1015,8 20 0,0
15.11.2018 10:00:00 15,3 8,1 21 11 ZO 1015,3 20 -
15.11.2018 09:00:00 14,2 7,5 11 6 ZO 1015,4 20 0,0
15.11.2018 08:00:00 12,7 9,0 2 1 N 1015,3 20 0,0
15.11.2018 07:00:00 14,2 7,5 11 6 ZO 1014,2 20 -
15.11.2018 06:00:00 14,2 8,2 13 7 OZO 1014,1 20 0,0
15.11.2018 05:00:00 15,0 8,5 16 9 ZO 1014,0 20 0,0
15.11.2018 04:00:00 15,1 8,8 22 12 ZO 1014,2 20 -
15.11.2018 03:00:00 15,2 8,4 13 7 ZZO 1014,5 20 0,0
15.11.2018 02:00:00 15,4 8,6 16 9 ZO 1015,0 20 0,0
15.11.2018 01:00:00 15,8 8,8 26 14 ZO 1015,9 20 -
15.11.2018 00:00:00 15,9 9,1 16 9 ZO 1016,2 20 0,0
14.11.2018 23:00:00 15,9 9,3 18 10 ZO 1016,4 20 0,0
14.11.2018 22:00:00 15,9 9,3 24 13 ZO 1016,4 11 -
14.11.2018 21:00:00 16,0 9,2 29 16 ZO 1016,1 11 0,0
14.11.2018 20:00:00 15,9 9,6 22 12 ZO 1016,0 20 0,0
14.11.2018 19:00:00 16,3 9,7 16 9 OZO 1016,1 20 -
14.11.2018 18:00:00 16,8 9,2 24 13 ZO 1015,8 20 0,0
14.11.2018 17:00:00 17,1 9,5 18 10 ZZO 1016,0 20 0,0
14.11.2018 16:00:00 17,1 10,0 21 11 ZO 1016,3 20 -
14.11.2018 15:00:00 17,0 10,4 18 10 ZO 1016,8 20 0,0
14.11.2018 14:00:00 16,9 10,5 21 11 OZO 1017,2 20 0,0
14.11.2018 13:00:00 16,4 10,3 22 12 ZO 1017,9 20 -
14.11.2018 12:00:00 16,3 10,2 18 10 OZO 1018,9 20 0,0
14.11.2018 11:00:00 16,0 10,3 16 9 ZO 1019,7 20 0,0
14.11.2018 10:00:00 15,4 9,7 16 9 ZZO 1020,1 19 -
14.11.2018 09:00:00 15,1 9,5 29 16 ZO 1020,1 20 0,0
14.11.2018 08:00:00 15,2 9,3 28 15 ZO 1019,7 20 0,0
14.11.2018 07:00:00 15,5 8,9 28 15 ZO 1019,6 20 -
14.11.2018 06:00:00 15,7 8,9 31 17 ZZO 1019,6 20 0,0
14.11.2018 05:00:00 15,9 8,1 29 16 ZO 1019,7 20 0,0
14.11.2018 04:00:00 15,7 8,4 21 11 ZO 1020,4 20 -
14.11.2018 03:00:00 - - - - - - - -
14.11.2018 02:00:00 - - - - - - - -
14.11.2018 01:00:00 16,0 8,7 22 12 ZO 1021,3 20 -
14.11.2018 00:00:00 16,3 8,5 21 11 ZO 1021,4 20 0,0
13.11.2018 23:00:00 16,4 8,9 15 8 ZZO 1021,2 20 0,0
13.11.2018 22:00:00 16,8 9,0 21 11 OZO 1021,2 20 -
13.11.2018 21:00:00 17,2 8,9 18 10 OZO 1020,9 6 0,0
13.11.2018 20:00:00 17,5 8,6 21 11 OZO 1020,9 2,8 0,0
13.11.2018 19:00:00 17,6 8,7 29 16 ZO 1020,2 3,1 -
13.11.2018 18:00:00 15,9 10,6 5 3 ZW 1020,5 20 0,0
13.11.2018 17:00:00 17,0 11,3 2 1 ZW 1019,9 20 0,0
13.11.2018 16:00:00 16,8 10,9 2 1 ZZW 1019,5 20 -
13.11.2018 15:00:00 16,4 10,0 4 2 OZO 1019,7 20 0,0
13.11.2018 14:00:00 16,3 10,2 4 2 ONO 1020,2 9 0,0
13.11.2018 13:00:00 13,7 9,7 4 2 O 1021,1 20 -
13.11.2018 12:00:00 13,1 9,0 4 2 NNO 1021,7 20 0,0
13.11.2018 11:00:00 11,8 9,2 2 1 N 1022,2 18 0,0
13.11.2018 10:00:00 11,9 8,9 4 2 NNW 1022,0 20 -
13.11.2018 09:00:00 11,3 9,0 2 1 ZO 1021,9 20 0,0
13.11.2018 08:00:00 10,3 7,9 2 1 Z 1021,5 20 0,0
13.11.2018 07:00:00 11,0 8,4 4 2 Z 1021,1 20 -
13.11.2018 06:00:00 9,8 8,2 2 1 O 1021,4 20 0,0
13.11.2018 05:00:00 10,0 8,1 2 1 Z 1021,0 20 0,0
13.11.2018 04:00:00 10,4 8,0 2 1 ZZO 1021,1 20 -
13.11.2018 03:00:00 11,8 8,3 5 3 Z 1020,6 20 0,0
13.11.2018 02:00:00 11,4 9,0 8 4 Z 1020,3 20 0,0
13.11.2018 01:00:00 11,1 9,0 4 2 Z 1020,4 20 -
13.11.2018 00:00:00 11,4 9,1 2 1 Z 1020,0 20 0,0
12.11.2018 23:00:00 11,9 9,3 4 2 W 1019,5 20 0,0
12.11.2018 22:00:00 12,2 9,0 4 2 ZZW 1018,7 20 -
12.11.2018 21:00:00 12,3 9,1 2 1 ZZW 1018,4 20 0,0
12.11.2018 20:00:00 13,1 9,3 2 1 Z 1018,1 20 0,0
12.11.2018 19:00:00 13,3 9,5 2 1 ZO 1017,5 20 -
12.11.2018 18:00:00 13,6 10,0 4 2 Z 1016,6 20 0,0
12.11.2018 17:00:00 15,3 10,3 4 2 WZW 1015,9 20 0,0
12.11.2018 16:00:00 15,9 9,8 5 3 ZO 1015,3 20 -
12.11.2018 15:00:00 15,6 9,5 5 3 OZO 1015,6 20 0,0
12.11.2018 14:00:00 16,1 8,1 13 7 NW 1015,9 20 0,0
12.11.2018 13:00:00 15,8 11,4 11 6 NW 1016,1 20 -
12.11.2018 12:00:00 15,6 10,6 8 4 NNW 1016,3 20 0,0
12.11.2018 11:00:00 14,7 10,9 5 3 N 1015,9 19 0,0
12.11.2018 10:00:00 14,0 11,3 4 2 N 1015,1 19 -
12.11.2018 09:00:00 12,7 10,4 4 2 ZW 1014,6 19 0,0
12.11.2018 08:00:00 11,8 10,4 11 6 ZZO 1014,7 17 0,0
12.11.2018 07:00:00 11,8 10,5 9 5 ZZO 1014,6 14 -
12.11.2018 06:00:00 11,7 10,3 8 4 ZZO 1014,7 15 0,0
12.11.2018 05:00:00 10,7 9,9 8 4 ZO 1015,1 11 0,0
12.11.2018 04:00:00 11,0 9,7 9 5 ZO 1015,0 18 -
12.11.2018 03:00:00 10,2 8,6 2 1 ZZW 1015,4 17 0,0
12.11.2018 02:00:00 10,6 8,9 5 3 Z 1014,9 20 0,0
12.11.2018 01:00:00 11,5 8,7 2 1 ZZO 1014,4 20 -
12.11.2018 00:00:00 12,6 8,5 4 2 WNW 1013,9 20 0,0
11.11.2018 23:00:00 14,4 7,9 9 5 Z 1013,1 20 0,0
11.11.2018 22:00:00 15,2 8,7 13 7 WNW 1012,9 20 -
11.11.2018 21:00:00 13,5 10,5 4 2 ZW 1013,2 20 0,0
11.11.2018 20:00:00 13,6 11,3 8 4 Z 1013,1 20 0,0
11.11.2018 19:00:00 14,2 11,4 5 3 ZW 1012,8 20 -
11.11.2018 18:00:00 14,9 11,5 8 4 WZW 1012,4 20 0,0
11.11.2018 17:00:00 16,7 12,0 8 4 ZW 1012,0 20 0,0
11.11.2018 16:00:00 18,1 12,1 4 2 ZW 1012,1 20 -
11.11.2018 15:00:00 18,7 12,2 4 2 ONO 1012,4 20 0,0
11.11.2018 14:00:00 18,5 11,8 4 2 ONO 1013,6 20 0,0
11.11.2018 13:00:00 17,7 11,9 4 2 NO 1015,1 20 -
11.11.2018 12:00:00 17,0 11,9 4 2 ONO 1016,4 20 0,0
11.11.2018 11:00:00 15,9 11,3 8 4 OZO 1017,1 20 0,0
11.11.2018 10:00:00 15,8 11,2 4 2 O 1017,5 20 -
11.11.2018 09:00:00 13,7 11,2 4 2 ZZW 1018,1 20 0,0
11.11.2018 08:00:00 11,5 10,2 8 4 ZW 1018,1 20 0,0
11.11.2018 07:00:00 12,3 10,2 11 6 Z 1017,8 20 -
11.11.2018 06:00:00 12,8 10,5 4 2 ZZW 1018,1 20 0,0
11.11.2018 05:00:00 13,2 10,7 4 2 W 1018,0 20 0,0
11.11.2018 04:00:00 12,7 9,9 5 3 Z 1018,4 20 -
11.11.2018 03:00:00 12,2 10,1 5 3 ZW 1018,9 20 0,0
11.11.2018 02:00:00 10,6 9,2 2 1 ZZW 1019,5 20 0,0
11.11.2018 01:00:00 10,2 8,8 4 2 ZZW 1020,1 20 -
11.11.2018 00:00:00 10,7 8,8 4 2 ZW 1020,0 20 0,0
10.11.2018 23:00:00 11,3 8,9 4 2 W 1020,0 20 0,0
10.11.2018 22:00:00 11,0 9,1 8 4 ZZW 1020,3 20 -
10.11.2018 21:00:00 11,6 9,2 5 3 ZZW 1020,0 20 0,0
10.11.2018 20:00:00 12,2 9,2 2 1 NNW 1019,9 19 0,0
10.11.2018 19:00:00 13,9 9,1 9 5 ZZW 1019,3 20 -
10.11.2018 18:00:00 14,0 9,2 11 6 W 1019,1 20 0,0
10.11.2018 17:00:00 15,0 8,9 11 6 W 1018,5 20 0,0
10.11.2018 16:00:00 15,5 8,9 15 8 W 1018,2 20 -
10.11.2018 15:00:00 15,6 9,0 13 7 W 1018,4 20 0,0
10.11.2018 14:00:00 15,7 8,7 8 4 OZO 1018,3 20 0,0
10.11.2018 13:00:00 15,0 8,2 5 3 O 1019,7 20 -
10.11.2018 12:00:00 14,7 8,2 5 3 O 1020,7 4,7 0,0
10.11.2018 11:00:00 12,1 8,0 8 4 ZO 1021,4 3,0 0,0
10.11.2018 10:00:00 10,5 7,9 2 1 OZO 1021,6 11 -
10.11.2018 09:00:00 9,4 7,5 2 1 ZW 1021,8 12 0,0
10.11.2018 08:00:00 8,6 7,1 2 1 ZZO 1021,9 4,1 0,0
10.11.2018 07:00:00 8,6 6,9 4 2 O 1021,3 9 -
10.11.2018 06:00:00 8,4 6,9 2 1 WZW 1021,8 20 0,0
10.11.2018 05:00:00 8,4 6,7 4 2 ZW 1021,7 20 0,0
10.11.2018 04:00:00 9,1 6,7 4 2 W 1022,0 20 -
10.11.2018 03:00:00 10,0 6,7 4 2 WNW 1022,3 20 0,0
10.11.2018 02:00:00 9,2 6,3 5 3 Z 1022,7 20 0,0
10.11.2018 01:00:00 9,2 5,7 4 2 ZZW 1023,4 20 -
10.11.2018 00:00:00 9,8 5,8 4 2 Z 1023,9 20 0,0
09.11.2018 23:00:00 10,7 5,9 5 3 ZW 1023,5 20 0,0
09.11.2018 22:00:00 11,2 5,9 8 4 WZW 1023,9 20 -
09.11.2018 21:00:00 10,4 5,8 8 4 W 1023,6 20 0,0
09.11.2018 20:00:00 10,0 6,0 8 4 Z 1023,6 20 0,0

tt = temperatuur
td = dauwpunt
ff = windsnelheid
dd = windrichting
ppp = luchtdruk
vv = zicht
rr = neerslag

Weerstations in de omgeving